Location: Newark
(48.0000°N, 67.0000°E)
Time: 21:51:52
(UTC+00:00)

A-11 Canister half - Pass Details

Date: 18 February 2020
Orbit: 1516 x 1683 km, 47.2° (Epoch: 05 April)

Event Time Altitude Azimuth Distance (km) Brightness Sun altitude
Rises 13:20:44 0° 239° (WSW) 4,889 13.4 -4.5°
Reaches altitude 10° 13:23:55 10° 237° (WSW) 3,885 12.5 -5.0°
Maximum altitude 13:33:44 69° 157° (SSE) 1,702 9.2 -6.6°
Drops below altitude 10° 13:43:12 10° 77° (ENE) 3,762 10.4 -8.2°
Enters shadow 13:43:24 - 77° (ENE) 3,826 10.4 -8.2°
